Albany, NY

10:37 AM EDT on October 15, 2019 (GMT -0400)
Albany International

Weather History for KALB - August, 2019

Change the Weather History Date:

Sunday, August 4, 2019

  Actual Average Record
Temperature  
Mean Temperature 73 °F 72 °F  
Max Temperature 84 °F 82 °F 98 °F (1944)
Min Temperature 62 °F 61 °F 46 °F (1964)
Degree Days  
Heating Degree Days 0 0  
Month to date heating degree days 0 0  
Since 1 June heating degree days 27 57  
Since 1 July heating degree days 0 5  
Cooling Degree Days 8 7  
Month to date cooling degree days 35 28  
Year to date cooling degree days 541 394  
Since 1 June cooling degree days 519 364  
Growing Degree Days 23 (Base 50)    
Moisture  
Dew Point 60 °F    
Average Humidity 64    
Maximum Humidity 93    
Minimum Humidity 35    
Precipitation  
Precipitation T in 0.12 in 1.40 in (1915)
Month to date precipitation 0.81 0.51  
Year to date precipitation 25.67 23.20  
Sea Level Pressure  
Sea Level Pressure 29.93 in    
Wind  
Wind Speed 5 mph (West)    
Max Wind Speed 16 mph    
Max Gust Speed 22 mph    
Visibility 7 miles    
Events Fog , Rain    
T = Trace of Precipitation, MM = Missing Value Source: NWS Daily Summary

Daily Weather History Graph

Daily Weather History Graph

Search for Another Location

Airport or City:

Astronomy

Aug. 04, 2019 Rise Set
Actual Time 5:49 AM EDT 8:12 PM EDT
Civil Twilight 5:17 AM EDT 8:43 PM EDT
Nautical Twilight 4:38 AM EDT 9:23 PM EDT
Astronomical Twilight 3:54 AM EDT 10:06 PM EDT
Moon 9:57 AM EDT (8/4) 10:44 PM EDT (8/4)
Length of Visible Light 15h 26m
Length of Day
14h 22m
Waxing Crescent, 18% of the Moon is Illuminated
Aug 4
Waxing Crescent
Aug 7
First Quarter
Aug 15
Full
Aug 23
Last Quarter
Aug 30
New

Hourly Weather History & Observations

Time (EDT) Temp. Heat Index Dew Point Humidity Pressure Visibility Wind Dir Wind Speed Gust Speed Precip Events Conditions
12:51 AM 66.9 °F - 63.0 °F 87% 29.94 in 10.0 mi South 6.9 mph - N/A   Scattered Clouds
1:51 AM 66.0 °F - 62.1 °F 87% 29.94 in 9.0 mi SSW 4.6 mph - N/A Fog Patches of Fog
2:02 AM 66.0 °F - 63.0 °F 90% 29.94 in 7.0 mi SSW 5.8 mph - N/A Fog Patches of Fog
2:10 AM 66.0 °F - 63.0 °F 90% 29.94 in 1.8 mi South 4.6 mph - N/A Fog Patches of Fog
2:19 AM 66.0 °F - 63.0 °F 90% 29.93 in 0.2 mi SSW 4.6 mph - N/A Fog Patches of Fog
2:40 AM 64.9 °F - 63.0 °F 93% 29.93 in 0.2 mi South 3.5 mph - N/A Fog Fog
2:51 AM 64.9 °F - 63.0 °F 93% 29.92 in 0.2 mi Calm Calm - N/A Fog Fog
3:04 AM 64.0 °F - 62.1 °F 93% 29.93 in 0.5 mi Calm Calm - N/A Fog Fog
3:26 AM 64.0 °F - 62.1 °F 93% 29.92 in 0.5 mi South 4.6 mph - N/A Fog Fog
3:31 AM 64.0 °F - 62.1 °F 93% 29.92 in 0.5 mi SSE 4.6 mph - N/A Fog Fog
3:51 AM 64.0 °F - 61.0 °F 90% 29.91 in 0.5 mi South 3.5 mph - N/A   Scattered Clouds
4:34 AM 63.0 °F - 61.0 °F 93% 29.92 in 0.5 mi SSW 4.6 mph - N/A Fog Patches of Fog
4:51 AM 63.0 °F - 61.0 °F 93% 29.92 in 0.5 mi Calm Calm - N/A Fog Patches of Fog
5:01 AM 63.0 °F - 61.0 °F 93% 29.92 in 2.5 mi Calm Calm - N/A Fog Patches of Fog
5:43 AM 63.0 °F - 60.1 °F 90% 29.93 in 5.0 mi SE 3.5 mph - N/A   Scattered Clouds
5:51 AM 63.0 °F - 61.0 °F 93% 29.93 in 5.0 mi SSE 3.5 mph - N/A   Scattered Clouds
6:51 AM 64.0 °F - 61.0 °F 90% 29.94 in 10.0 mi Calm Calm - N/A   Mostly Cloudy
7:51 AM 69.1 °F - 60.1 °F 73% 29.94 in 10.0 mi Calm Calm - N/A Fog Partly Cloudy
8:51 AM 72.0 °F - 61.0 °F 68% 29.94 in 10.0 mi NNW 3.5 mph - N/A   Partly Cloudy
9:51 AM 75.0 °F - 61.0 °F 62% 29.94 in 10.0 mi North 5.8 mph - N/A   Partly Cloudy
10:51 AM 75.9 °F - 61.0 °F 60% 29.96 in 10.0 mi Variable 3.5 mph - N/A   Partly Cloudy
11:51 AM 79.0 °F - 64.0 °F 60% 29.95 in 10.0 mi NNW 3.5 mph - N/A   Mostly Cloudy
12:51 PM 77.0 °F - 64.9 °F 66% 29.94 in 10.0 mi NNE 6.9 mph - 0.00 in Rain Light Rain
1:51 PM 80.1 °F 81.2 °F 62.1 °F 54% 29.91 in 10.0 mi NW 4.6 mph - 0.00 in   Mostly Cloudy
2:51 PM 81.0 °F 81.9 °F 62.1 °F 52% 29.90 in 10.0 mi North 3.5 mph - N/A   Mostly Cloudy
3:51 PM 80.1 °F 80.9 °F 60.1 °F 50% 29.89 in 10.0 mi WNW 10.4 mph - N/A   Mostly Cloudy
4:51 PM 82.0 °F 82.7 °F 61.0 °F 49% 29.88 in 10.0 mi NW 9.2 mph - N/A   Mostly Cloudy
5:51 PM 82.0 °F 82.0 °F 57.9 °F 44% 29.89 in 10.0 mi NW 10.4 mph - N/A   Partly Cloudy
6:51 PM 80.1 °F - 50.0 °F 35% 29.90 in 10.0 mi WNW 12.7 mph - N/A   Partly Cloudy
7:51 PM 75.0 °F - 48.9 °F 40% 29.91 in 10.0 mi NW 8.1 mph - N/A   Partly Cloudy
8:51 PM 73.0 °F - 53.1 °F 49% 29.94 in 10.0 mi NNW 4.6 mph - N/A   Partly Cloudy
9:51 PM 70.0 °F - 55.9 °F 61% 29.95 in 10.0 mi NNW 5.8 mph - N/A   Partly Cloudy
10:51 PM 69.1 °F - 54.0 °F 58% 29.97 in 10.0 mi NNW 3.5 mph - N/A   Partly Cloudy
11:51 PM 66.0 °F - 53.1 °F 63% 29.99 in 10.0 mi NNW 5.8 mph - N/A   Partly Cloudy